RH
14 12 11 10 12 17 19 21 21 16 10 7 7 6 4 6 7 9 9 9 9 10 13 13 14 15 14 14 14 13 13 14 11 16 29 23 25 35 27 26 24 14 11 7 13 25 23 19 19 17 14 12 10 10 8 7 7 8 9 9 10 8 7 5 3 4 4 4 4 5 6 6 6 5 5 9 8 8 6 7 21 35 44 48 48 56 65 72
15 16 19 23 28 33 33 29 23 16 10 6 7 6 4 6 8 10 11 12 12 12 14 13 14 14 13 14 13 14 13 12 13 13 18 22 30 34 28 27 22 14 10 9 16 22 20 16 14 13 12 11 9 8 7 6 8 8 8 9 8 7 5 4 3 3 4 4 4 5 6 6 5 5 6 10 10 9 7 7 25 44 52 60 65 70 74 77
29 32 35 36 37 36 33 27 20 15 10 6 7 6 5 5 7 9 11 12 13 13 14 14 14 13 13 14 12 14 11 15 26 22 17 23 27 23 22 20 15 13 10 11 16 17 16 14 11 11 11 9 7 7 6 6 8 8 8 9 7 5 4 3 3 4 5 4 4 5 5 6 5 5 9 11 10 9 7 6 21 43 53 61 67 72 76 77
38 38 39 37 36 33 29 27 23 18 11 7 6 7 6 6 6 7 10 12 13 14 13 14 13 13 13 12 11 11 18 33 41 35 30 29 23 16 13 11 11 12 9 12 17 16 14 12 11 10 9 7 7 6 5 6 7 7 6 7 6 4 4 3 4 4 5 5 5 5 5 5 4 7 9 10 11 9 7 4 13 35 49 58 65 70 73 74
37 37 39 38 36 33 33 35 33 28 17 9 6 6 7 7 7 6 8 10 11 12 12 12 12 12 10 10 11 14 34 46 38 36 35 26 17 15 13 9 11 11 9 16 21 19 14 12 11 9 8 7 6 5 5 6 6 7 6 6 5 4 4 4 4 4 5 6 5 6 5 5 5 7 7 9 11 9 13 10 8 24 41 51 61 69 73 74
36 37 39 40 38 37 40 41 39 37 31 21 9 4 7 7 8 8 7 7 9 10 10 10 10 10 9 13 15 23 49 47 30 38 39 29 19 13 13 9 9 10 13 22 24 20 15 12 10 8 8 6 6 6 5 5 5 6 6 5 5 4 5 4 4 5 6 6 6 5 5 5 5 5 7 10 9 11 21 19 15 28 40 47 56 64 69 72
36 36 38 39 41 42 43 41 38 38 39 37 20 5 5 7 8 9 9 7 7 8 8 9 8 8 13 20 25 39 59 48 33 37 30 24 18 10 12 9 9 11 17 27 23 16 12 10 8 7 6 6 5 5 5 5 5 5 5 5 5 4 4 4 4 5 6 6 5 5 5 6 5 5 8 9 8 13 24 26 29 37 42 48 56 61 65 66
38 38 37 37 40 42 42 39 37 35 35 42 36 16 4 4 8 8 11 10 8 9 9 10 7 11 18 21 35 51 54 44 36 31 18 14 13 9 11 9 9 11 19 29 22 13 9 7 7 6 5 5 5 4 4 5 4 4 5 5 4 4 4 4 5 5 5 5 5 6 5 5 5 7 9 9 9 14 24 27 31 37 40 51 59 62 64 62
37 39 39 37 37 38 39 37 35 34 32 37 44 34 12 3 6 7 11 11 10 10 10 12 8 15 20 18 42 53 35 31 30 20 11 11 11 8 10 11 12 16 22 27 20 12 8 7 7 5 5 4 4 4 3 5 5 5 5 5 4 4 5 5 5 5 5 5 6 6 5 5 6 8 9 11 11 13 19 19 22 30 35 47 58 60 64 62
30 36 40 40 38 36 36 35 32 32 33 33 40 46 32 11 6 8 11 11 11 12 11 12 11 19 22 26 52 48 21 24 25 15 11 11 9 7 13 17 17 21 23 19 15 10 7 7 6 5 6 4 5 5 4 5 5 5 5 5 4 3 4 5 4 4 4 5 6 5 5 6 6 8 12 14 12 11 13 15 20 26 28 40 54 55 60 62
21 27 34 39 40 36 34 34 31 29 32 33 35 45 40 17 8 9 11 12 11 12 12 11 15 20 21 39 62 41 15 22 22 18 17 13 12 14 20 23 18 20 19 13 12 9 7 7 7 7 6 5 6 5 5 5 4 4 5 5 5 4 4 4 4 5 5 5 6 5 5 6 6 8 12 14 12 10 10 15 19 23 26 34 47 52 57 59
14 18 25 32 37 36 33 32 29 27 29 34 35 38 35 18 13 13 9 12 12 12 13 12 17 17 23 53 65 36 14 18 20 19 21 17 18 21 25 23 17 17 15 11 9 8 8 9 10 9 7 7 7 5 5 5 4 5 6 7 7 6 5 5 4 5 5 5 5 6 6 7 7 7 11 13 11 10 8 13 15 15 24 30 39 49 54 56
11 13 17 22 28 31 33 31 27 26 26 33 36 34 33 25 24 22 14 11 12 14 12 13 17 15 36 59 46 25 16 16 19 20 21 21 21 22 22 20 15 16 15 11 8 8 10 11 11 9 8 10 7 7 6 5 6 5 6 7 6 6 6 5 4 5 5 5 5 6 8 8 7 6 11 13 11 10 9 12 11 8 18 31 43 49 48 50
11 11 13 16 21 24 29 30 27 24 23 31 37 34 33 30 29 29 23 15 10 14 12 15 16 18 51 57 24 17 20 17 18 18 20 22 22 20 18 17 16 17 16 12 10 10 11 11 11 10 10 11 8 8 8 6 7 6 6 6 6 7 6 4 4 5 4 5 5 6 9 8 6 7 10 12 11 10 9 10 12 10 13 26 44 45 38 40
11 11 11 12 15 19 24 26 26 24 21 27 35 35 31 31 31 31 32 26 17 16 11 16 23 29 54 50 21 17 16 16 18 14 18 19 18 16 13 15 15 15 14 12 12 11 12 11 11 10 9 9 8 8 8 7 7 6 7 7 6 6 6 5 4 5 4 5 6 6 8 7 5 7 7 9 9 9 10 9 11 14 11 16 34 38 32 33
10 11 11 11 11 14 18 22 23 23 20 23 33 36 29 28 31 29 32 34 28 21 12 26 47 51 51 37 21 17 12 18 18 12 16 15 14 12 11 13 12 12 12 11 13 11 12 11 10 10 9 9 8 8 8 8 8 7 7 9 8 6 5 6 5 4 4 5 6 6 7 6 5 6 6 8 7 7 9 9 12 18 15 12 24 34 33 35
9 10 11 11 11 11 14 17 19 20 19 22 31 34 29 29 32 30 32 35 34 26 17 31 54 58 48 31 22 17 13 19 16 12 15 13 13 11 10 12 10 12 11 11 13 11 12 11 11 11 10 11 8 7 10 11 12 9 7 8 8 7 5 7 6 5 5 5 6 6 6 6 6 7 6 7 7 6 7 7 11 20 22 16 27 41 39 37
8 11 11 11 11 10 11 14 16 17 16 22 32 34 30 28 30 32 34 35 34 30 25 31 45 47 39 30 24 17 14 18 15 13 13 13 14 11 11 11 10 12 11 11 12 10 12 10 10 11 9 11 9 9 12 12 13 13 11 8 7 7 6 6 6 6 6 5 6 7 7 6 6 7 6 6 6 6 7 6 8 18 29 30 37 48 45 41
6 10 11 11 11 10 12 14 16 17 18 27 33 31 31 34 40 37 34 41 41 33 29 32 38 35 24 22 21 16 15 17 14 14 13 12 14 12 11 11 11 11 10 11 11 10 11 10 12 14 12 12 10 9 13 14 13 13 12 8 8 8 6 5 6 6 6 6 7 7 7 6 5 7 6 6 7 6 7 7 7 14 29 38 38 43 48 45
5 9 11 11 11 11 13 15 17 20 27 34 31 34 48 52 54 47 40 52 48 29 24 25 26 23 16 16 17 16 16 15 14 15 14 12 13 12 11 12 11 11 11 11 12 10 10 13 15 13 14 16 13 11 15 16 14 14 13 9 8 9 7 6 6 6 6 7 8 6 7 6 5 7 6 6 7 6 7 8 8 8 19 34 39 49 60 52
4 8 11 11 12 13 14 17 23 28 33 36 30 43 57 42 36 40 39 45 40 28 26 23 20 17 15 15 16 16 16 14 14 14 14 13 13 12 11 12 11 11 11 10 12 13 13 15 15 13 15 17 16 16 16 16 15 15 14 10 9 9 7 6 7 7 7 9 10 8 8 7 6 7 6 6 7 7 7 8 9 7 10 17 25 46 59 49
4 6 9 13 15 16 17 22 31 34 34 34 30 43 49 31 26 32 32 31 29 28 25 20 19 16 14 16 16 16 14 13 13 13 14 13 12 12 11 10 11 11 11 10 12 15 16 15 12 11 15 16 16 16 16 15 15 14 13 11 10 9 7 9 10 8 7 10 11 9 9 7 7 7 6 7 7 8 8 8 9 8 9 9 10 31 47 41
7 4 6 13 17 19 21 27 34 33 34 32 29 40 42 31 29 32 33 32 28 24 19 17 19 16 15 17 16 15 14 12 12 12 13 13 11 11 10 9 9 9 10 10 12 15 16 13 10 10 14 15 14 14 15 14 14 13 12 11 11 8 7 11 14 10 8 10 10 9 10 10 9 7 7 8 7 7 8 8 9 6 8 10 7 20 41 45
10 6 5 10 14 20 23 26 30 28 29 28 27 38 39 30 33 36 37 36 31 26 20 15 15 14 13 14 15 15 13 13 11 11 13 12 11 10 10 9 9 9 8 9 11 13 11 11 11 12 13 14 13 14 15 15 13 12 13 11 11 9 7 9 12 12 11 12 12 11 13 14 10 9 9 9 6 7 8 7 8 7 7 10 8 13 35 49
12 9 7 5 8 17 19 23 32 33 34 35 34 38 34 30 36 41 41 40 36 29 21 15 13 12 11 12 15 12 12 14 11 10 12 11 10 10 9 9 9 10 8 7 9 10 10 12 12 12 13 12 12 13 14 17 15 13 13 11 10 10 9 10 12 15 18 19 16 15 19 17 10 9 10 9 6 7 9 7 6 8 8 8 10 10 22 42
11 11 11 8 6 11 16 28 44 41 35 37 37 33 30 32 37 42 47 49 41 26 18 16 13 11 12 13 15 12 12 14 10 11 13 11 10 10 10 9 8 9 8 7 8 7 9 11 11 11 13 12 12 12 12 15 17 15 15 11 9 10 11 12 13 16 20 20 16 14 19 18 11 9 9 8 8 8 9 9 8 9 9 8 10 10 12 27
12 11 12 11 8 7 11 32 47 36 26 31 32 30 30 33 38 44 52 55 44 25 15 13 12 13 15 15 14 13 16 15 10 11 12 12 11 10 12 11 9 8 7 9 11 10 9 11 12 12 13 14 13 12 11 12 15 17 16 12 10 11 12 12 12 15 17 15 14 13 15 17 16 12 9 7 8 9 10 11 9 8 8 8 9 11 11 15
13 11 11 13 14 9 6 16 24 19 25 33 30 31 33 34 39 49 59 59 39 19 13 12 12 15 14 15 14 11 14 13 11 12 12 12 11 10 11 10 9 8 6 10 13 13 11 13 15 13 14 14 12 11 10 10 13 15 13 10 10 11 11 11 10 12 13 15 16 14 13 17 19 13 9 8 8 10 12 11 11 8 8 9 7 9 10 11
13 11 11 13 14 15 12 9 11 14 23 28 29 34 35 34 40 48 60 58 31 12 14 14 13 16 13 13 15 11 10 12 11 12 12 12 12 11 11 9 9 9 7 9 12 12 11 11 11 11 13 13 10 9 8 8 12 13 11 11 12 12 11 11 11 11 13 19 20 16 14 17 19 14 10 10 9 11 13 11 10 9 8 8 9 10 10 12
11 10 11 12 16 25 30 31 31 25 20 25 33 37 36 38 45 54 60 49 25 12 15 15 13 15 12 12 14 12 12 11 10 11 12 12 12 11 11 11 10 9 8 9 9 9 8 9 10 10 11 10 9 8 7 8 10 11 13 14 13 13 11 11 12 12 18 23 20 15 15 16 18 16 11 10 10 11 13 11 10 10 11 11 11 13 13 13
9 10 10 11 17 26 35 46 46 34 29 35 35 32 36 40 46 60 57 33 20 16 12 14 14 11 12 14 13 12 13 11 9 11 12 11 11 10 11 12 11 10 12 12 11 8 7 9 10 9 8 7 8 8 7 8 8 9 12 13 15 15 13 14 15 16 24 26 19 15 13 15 19 17 11 9 10 10 12 11 10 12 13 14 14 14 14 15
8 10 9 10 17 21 26 39 46 46 44 38 30 30 39 43 45 52 45 28 26 22 11 11 12 9 12 12 11 12 11 11 10 10 10 10 11 11 11 12 12 13 15 14 13 12 10 9 8 7 7 6 7 8 7 7 8 9 10 12 17 19 20 26 24 23 27 24 18 17 15 16 16 14 11 9 9 11 11 10 11 13 13 14 15 14 15 18
8 8 8 8 12 18 21 28 38 46 45 37 34 35 40 48 48 38 29 27 27 17 9 11 9 7 11 11 10 10 10 11 10 9 10 9 11 11 10 9 10 13 16 15 15 15 14 12 8 8 8 6 7 8 8 8 8 10 10 12 18 22 29 36 31 29 31 26 19 17 18 19 15 12 11 9 9 11 10 11 12 14 14 15 14 13 17 21
9 7 8 7 7 12 17 25 33 36 41 47 44 37 40 51 46 30 23 22 18 12 10 11 9 9 11 10 10 9 11 12 9 8 10 9 12 13 12 10 8 10 14 16 16 16 19 18 12 9 9 7 7 7 7 8 8 9 8 10 15 19 28 35 30 28 29 25 21 18 19 21 17 13 10 8 10 10 10 11 12 14 16 16 14 12 17 24
9 8 8 7 7 9 12 23 32 32 40 50 42 33 42 47 36 26 22 15 11 13 12 9 9 11 10 9 9 8 10 12 9 10 10 9 12 12 12 11 8 8 12 14 15 13 16 15 9 8 8 7 7 6 5 7 8 9 7 10 14 15 19 25 26 25 25 25 23 20 19 17 15 14 10 8 11 10 10 10 11 14 14 14 14 15 20 29
9 15 18 14 8 8 13 23 32 36 42 44 38 34 34 32 25 20 14 9 9 11 12 12 11 12 12 10 9 7 8 10 10 11 10 9 9 8 9 10 9 8 8 10 13 12 13 12 7 7 8 7 8 6 5 7 9 9 9 11 12 10 13 21 24 23 23 26 23 19 19 15 15 17 12 10 12 10 9 10 10 12 13 14 16 19 24 31
8 18 31 31 23 22 30 36 40 47 46 38 38 37 27 21 18 14 9 8 9 10 13 17 14 13 14 13 11 9 8 10 10 11 12 9 8 7 7 8 9 8 6 9 13 13 14 14 9 7 8 7 6 6 5 5 7 8 9 9 8 8 12 17 22 21 22 28 24 19 19 15 14 16 13 12 13 11 9 9 10 11 14 16 19 23 28 33
6 10 23 25 25 32 39 41 43 47 41 33 35 35 25 20 16 11 9 8 9 11 13 16 15 14 14 14 14 11 10 12 11 10 10 9 9 7 6 8 11 9 7 10 13 13 15 17 13 7 8 7 4 7 9 7 6 7 7 6 6 11 14 15 20 21 22 27 25 18 17 13 11 13 14 14 14 12 10 9 10 12 14 16 21 26 31 35
9 17 24 18 21 32 36 38 42 41 34 30 32 29 21 18 15 10 8 7 9 11 10 11 12 13 14 14 14 12 12 13 11 10 9 7 12 13 8 8 11 11 10 10 12 12 13 19 20 11 6 6 5 8 12 10 7 6 6 6 6 9 12 14 17 18 20 24 23 21 17 13 14 16 14 15 14 12 12 11 10 11 12 15 21 27 31 34
30 36 32 22 23 30 32 37 40 35 31 30 28 23 17 13 11 8 7 8 10 10 9 9 9 12 14 13 13 13 13 12 10 11 9 6 14 19 11 8 12 12 12 10 11 12 12 18 24 16 8 8 9 10 11 10 9 7 8 9 9 10 10 10 12 12 16 20 21 23 19 17 25 23 12 13 15 14 13 13 12 11 11 15 20 27 30 33
37 37 29 25 27 32 36 37 33 28 29 28 23 19 15 13 10 9 9 10 11 10 8 8 9 12 13 13 14 14 13 12 11 11 10 7 11 16 12 10 11 10 12 13 12 13 15 18 22 18 12 11 10 8 7 8 8 9 10 10 11 14 17 21 20 13 12 16 17 20 19 21 27 20 10 12 16 14 12 12 12 11 12 17 22 27 30 32
31 28 25 30 32 34 36 30 24 24 25 23 20 16 14 14 12 10 11 11 11 10 8 8 9 12 13 14 15 14 12 13 12 11 11 8 8 12 11 10 10 10 12 12 11 16 21 21 22 20 15 12 10 7 6 6 6 8 11 10 10 14 18 24 26 19 16 18 19 19 20 24 25 15 10 14 13 12 12 12 12 11 14 21 25 29 31 32
38 27 27 33 32 31 33 27 21 22 22 19 16 13 11 12 12 12 12 10 9 9 8 8 9 11 13 13 14 14 14 15 13 11 11 9 11 13 11 11 11 9 10 11 12 18 21 19 21 21 16 10 8 6 5 4 5 8 10 9 9 11 11 15 18 17 18 18 18 20 21 28 31 21 14 14 12 11 13 12 12 13 19 26 26 28 31 31
45 32 30 33 30 27 29 28 23 21 20 18 15 13 12 11 11 13 13 10 9 9 10 10 10 12 11 11 12 13 14 16 15 12 10 9 12 13 10 12 11 7 11 19 21 23 22 20 21 24 22 18 14 9 7 6 7 8 9 9 10 10 10 13 13 14 19 17 16 21 22 26 31 23 13 11 11 12 13 13 14 18 23 25 26 29 31 31
52 37 27 24 28 29 25 23 20 18 19 19 17 15 14 12 11 12 12 10 10 10 12 14 14 14 13 13 14 13 14 16 16 13 10 9 12 13 12 12 10 10 18 25 22 21 24 23 23 26 30 28 22 16 14 13 12 11 10 11 12 12 13 16 15 16 21 20 18 22 21 21 24 20 17 18 14 12 14 13 15 21 25 23 25 30 30 29
54 38 24 19 23 24 21 17 15 15 18 22 24 20 18 18 15 11 12 13 12 11 13 15 14 15 16 17 18 17 14 14 14 12 11 10 11 13 13 11 11 18 27 25 18 18 22 23 22 24 26 25 20 16 13 14 15 14 13 12 12 12 13 17 18 19 22 23 24 22 20 23 23 21 29 35 26 18 17 15 16 22 26 25 27 32 31 29
50 36 28 28 27 22 20 18 13 13 15 19 22 20 20 22 17 13 16 16 12 11 13 14 13 15 18 19 21 21 18 15 14 13 12 10 8 10 12 11 13 21 24 18 14 16 19 21 21 21 21 18 15 14 12 12 13 13 12 12 12 12 14 19 23 22 21 26 29 24 22 28 25 19 25 32 29 24 21 21 25 27 28 31 32 31 29 28
41 36 32 35 36 29 27 27 20 17 16 17 19 19 20 22 20 18 18 17 15 13 14 17 16 14 15 16 19 22 20 19 19 17 14 10 9 14 14 12 15 20 17 12 12 15 19 22 20 19 19 16 13 13 12 13 13 11 12 13 12 13 15 20 22 19 19 26 29 24 26 32 26 18 18 20 23 25 21 21 27 26 24 32 35 30 24 25
43 43 38 39 40 32 28 31 27 23 21 22 24 24 23 24 25 21 16 20 24 18 16 21 18 13 13 12 14 19 23 28 31 32 28 20 16 19 18 14 16 17 16 15 16 16 22 25 21 19 20 16 14 14 12 12 13 12 12 12 10 12 14 17 18 15 17 23 23 22 29 34 25 18 18 17 18 21 19 17 20 19 20 26 29 26 22 21
53 52 46 48 46 32 24 27 27 23 21 23 26 25 23 24 25 21 17 21 28 25 22 24 20 16 16 11 11 21 30 36 40 42 39 32 26 24 22 20 18 16 15 17 18 20 25 27 22 22 25 21 17 15 13 13 12 12 12 11 10 13 15 17 20 19 21 24 22 25 35 36 24 16 17 18 17 18 17 17 17 16 16 19 21 22 23 21
53 57 55 56 48 31 23 23 22 21 24 28 31 27 25 24 21 21 22 20 21 25 25 25 25 24 21 19 22 30 34 33 33 33 31 29 28 25 23 21 19 18 18 18 20 23 26 27 25 28 33 30 21 16 16 13 11 13 14 15 15 17 18 19 19 19 23 26 27 30 33 30 22 18 19 20 21 22 23 25 26 22 17 18 21 22 22 22
43 54 57 56 47 30 21 21 23 30 36 35 32 27 24 23 18 20 27 23 18 19 19 22 27 25 26 34 38 35 31 29 27 26 24 23 22 19 18 17 16 17 19 19 21 22 23 27 29 30 36 33 22 17 18 18 21 23 20 20 21 20 19 19 19 20 23 26 29 30 27 24 24 25 24 25 27 30 31 32 34 31 26 25 27 26 22 22
Wind_Speed
9 8 8 7 7 7 8 8 9 9 8 7 7 8 7 7 6 5 4 4 4 4 3 2 2 3 3 4 4 6 6 8 9 10 15 13 10 14 15 13 12 9 8 8 8 10 13 14 14 14 13 13 13 14 15 15 15 11 6 7 7 8 9 8 11 4 3 2 5 9 5 4 7 7 5 2 7 12 14 4 17 22 22 21 20 22 22 23
8 7 7 7 6 7 8 8 8 8 7 6 6 6 6 5 5 4 4 3 3 3 2 1 2 3 3 4 4 6 8 8 10 14 17 13 13 17 18 17 15 11 10 11 11 13 14 13 13 13 14 14 13 14 13 13 14 10 6 7 8 9 10 13 12 4 5 6 10 7 2 3 5 7 4 2 7 9 11 6 19 26 25 26 26 24 22 23
7 7 7 7 6 6 7 7 7 7 7 6 6 6 5 5 4 3 3 2 2 1 1 1 2 3 3 4 5 6 7 8 12 15 12 10 13 16 17 16 14 12 12 13 12 13 13 12 12 12 14 13 13 14 13 12 12 11 9 7 9 11 13 14 9 7 7 9 9 7 4 6 9 6 3 3 8 9 9 9 15 24 25 25 25 23 22 22
8 7 7 7 6 6 7 7 7 7 7 6 5 5 5 4 4 3 2 1 1 1 1 1 2 3 3 4 4 5 6 8 9 7 6 7 9 12 14 13 12 12 12 13 12 12 12 12 11 12 14 12 14 15 13 11 9 10 10 8 12 13 11 10 6 4 7 6 8 10 7 10 10 4 5 6 8 8 9 14 14 21 26 25 24 22 22 22
8 8 7 7 7 6 6 7 7 8 8 6 6 5 4 4 3 3 3 2 1 1 1 2 3 3 3 3 3 3 4 4 0 3 4 5 6 8 11 11 11 12 12 13 11 12 12 13 12 13 13 10 12 13 12 14 11 8 10 12 15 15 11 8 5 1 2 4 7 9 9 10 7 6 9 7 8 5 4 3 12 22 25 24 23 23 22 21
7 7 7 7 6 6 6 7 8 8 8 8 7 5 4 4 4 3 2 2 2 2 2 3 3 4 2 2 3 2 2 3 2 3 7 6 7 8 8 10 11 13 14 12 11 11 12 13 12 12 12 10 12 12 11 15 14 9 9 12 14 16 12 8 6 2 2 5 9 9 9 8 8 10 7 5 8 1 17 17 15 27 27 23 20 22 22 22
7 7 7 7 6 6 6 7 8 8 9 8 8 6 4 3 4 3 3 2 1 1 3 3 3 4 2 2 4 3 7 8 3 6 9 8 7 7 8 10 11 15 15 12 12 11 11 12 14 13 11 9 12 13 12 15 17 12 9 11 13 13 10 9 7 3 2 8 9 8 9 9 11 8 4 6 7 8 19 20 25 29 25 21 20 20 22 24
7 7 7 7 6 6 6 7 8 8 9 9 8 7 5 3 3 4 3 2 1 2 3 3 4 3 3 2 3 7 12 9 5 8 9 6 6 5 9 10 13 17 15 12 13 11 11 13 14 13 10 10 12 13 13 14 14 11 9 13 13 10 7 8 8 7 8 9 9 9 10 11 10 4 4 6 6 10 18 20 19 22 21 21 23 22 22 25
7 7 7 7 7 6 6 7 7 8 9 9 9 8 6 4 4 4 3 2 1 2 2 3 4 3 3 2 4 8 6 4 7 10 6 3 3 7 11 12 14 16 12 12 13 12 12 12 14 14 12 12 11 12 12 9 7 7 11 14 14 11 7 8 11 11 11 11 9 9 11 11 7 3 4 4 7 9 14 15 12 18 20 20 23 24 25 26
9 8 8 8 7 7 7 7 8 8 8 9 9 8 7 6 5 4 4 2 1 1 2 4 3 1 2 3 6 6 1 1 5 4 3 4 6 10 12 12 13 13 12 12 12 13 13 12 12 13 12 13 12 10 9 7 6 8 11 14 14 11 8 10 13 11 11 11 8 9 12 8 6 5 3 4 6 9 13 15 16 20 20 19 21 24 26 27
9 9 9 9 8 8 7 7 7 7 8 9 10 9 7 7 5 4 3 1 1 1 2 3 3 2 2 3 8 6 2 1 2 3 6 7 10 12 11 12 12 11 12 10 11 12 12 11 10 9 7 7 10 9 10 12 11 9 9 11 11 10 11 13 12 9 10 10 9 12 11 4 6 8 7 8 9 12 14 16 18 22 23 21 20 23 22 23
9 9 9 9 9 8 7 7 7 7 8 8 9 9 7 6 6 5 3 1 0 1 3 3 3 4 4 6 12 9 2 2 5 6 8 9 10 9 8 10 12 13 11 8 10 11 11 8 7 12 7 3 8 7 8 13 12 10 8 9 11 11 13 15 13 10 11 9 11 14 10 5 8 7 10 13 10 12 14 14 15 18 25 27 23 22 19 19
9 9 9 9 9 8 8 7 6 7 7 8 8 8 6 6 6 6 4 1 0 2 3 3 4 5 5 8 10 5 1 2 6 7 9 10 10 8 7 9 11 12 10 7 8 9 10 8 8 14 10 8 10 4 2 8 8 9 9 8 10 10 11 15 15 13 13 10 13 11 7 6 9 6 11 11 10 11 10 12 11 11 22 29 29 28 24 22
8 8 9 9 9 9 8 7 7 7 7 7 7 7 6 6 6 5 4 2 0 2 3 4 5 5 4 7 3 5 5 4 6 9 10 11 11 8 7 8 10 10 9 7 5 4 7 8 9 12 11 13 12 7 4 7 6 8 10 8 7 8 10 14 13 13 12 9 12 8 7 5 7 10 10 8 10 10 8 10 11 11 13 17 27 33 28 24
8 8 8 9 9 9 9 8 7 7 7 7 7 7 7 6 6 5 3 3 1 2 4 4 4 4 6 10 6 5 7 7 7 9 11 12 11 9 8 9 9 8 8 6 4 4 6 8 9 11 11 13 11 8 7 8 7 7 7 7 7 9 8 11 12 12 10 9 11 9 7 6 7 12 11 8 10 11 10 11 11 15 14 10 20 27 23 25
8 8 8 8 9 9 9 9 9 8 7 7 7 8 7 7 7 6 6 4 2 3 4 2 6 7 7 5 5 6 7 9 9 10 12 12 11 10 9 9 8 7 7 7 5 4 7 9 10 12 12 10 8 8 7 6 7 7 6 7 8 9 5 9 10 12 10 9 12 11 8 7 7 13 12 8 9 10 10 11 11 20 23 20 20 18 19 27
7 7 7 8 8 8 9 9 10 9 8 7 8 8 9 10 8 8 7 5 4 3 5 3 3 7 9 4 3 8 9 10 9 11 12 12 11 9 9 9 9 8 7 7 6 6 8 9 9 9 9 8 7 7 6 7 7 6 7 6 8 10 5 8 10 12 11 11 10 11 11 7 7 12 11 9 8 10 10 12 11 24 31 29 18 13 18 22
7 7 7 7 7 7 8 8 8 8 7 7 8 9 11 12 11 9 8 6 3 0 3 5 3 5 11 13 11 11 11 10 10 12 12 10 10 7 9 11 9 9 9 8 9 10 8 9 9 6 6 7 6 7 7 6 4 3 5 6 7 10 7 7 7 10 10 11 9 9 10 9 9 10 11 9 7 11 11 12 9 20 33 28 17 14 15 16
7 7 7 7 7 7 6 6 6 5 6 6 8 10 12 13 12 9 7 7 4 4 2 8 15 5 2 10 14 12 11 10 10 11 12 10 9 8 10 11 8 10 11 7 9 11 8 7 7 6 6 7 9 9 5 6 8 11 10 6 7 7 6 7 3 8 8 9 10 9 10 11 8 10 10 9 9 11 11 10 8 11 26 29 24 23 24 26
8 7 7 7 6 5 5 4 4 4 4 6 8 10 10 9 7 4 5 10 13 13 10 8 22 17 4 7 10 9 10 10 10 11 12 11 9 9 11 11 10 11 9 7 8 9 9 7 6 8 5 3 6 4 3 8 10 12 13 5 6 7 6 7 4 9 5 5 8 9 11 12 8 9 9 11 14 10 9 9 8 10 15 26 30 33 38 39
9 7 7 6 5 4 3 2 2 3 4 6 8 9 8 7 5 2 1 11 17 20 21 15 18 21 11 4 10 9 9 10 11 12 12 12 11 9 11 11 10 8 8 12 7 5 6 6 8 10 1 3 4 6 5 7 9 9 10 7 4 6 6 5 3 10 7 2 5 8 12 11 9 12 9 9 8 5 7 10 8 11 12 15 18 31 42 36
11 8 7 6 4 3 1 1 2 3 5 6 8 11 9 9 8 7 8 11 16 18 23 19 16 17 11 5 7 8 11 12 12 14 13 13 13 11 10 11 10 8 8 11 6 3 5 8 13 11 3 3 2 6 6 7 8 8 7 6 5 7 5 2 6 6 8 4 6 9 11 10 10 12 8 4 6 6 9 14 13 14 13 13 12 24 38 27
13 9 7 5 4 3 2 3 3 5 6 7 9 11 10 10 8 9 9 10 13 15 21 19 16 15 14 13 9 9 13 13 12 15 16 14 15 14 10 9 9 10 10 10 7 5 6 6 9 5 5 2 4 4 6 6 6 7 6 6 6 7 8 2 5 2 3 3 5 9 9 9 7 7 6 9 13 10 12 17 19 16 13 14 14 16 33 30
15 12 9 6 5 4 4 4 5 7 7 7 10 9 9 9 8 10 10 9 10 11 17 19 17 16 17 15 12 14 16 14 13 16 18 15 15 13 11 11 9 9 10 9 9 10 11 1 7 7 5 1 5 4 5 5 6 7 8 9 9 8 9 5 4 3 4 3 5 10 8 6 7 6 7 14 13 10 13 18 15 12 12 14 13 9 26 34
16 13 10 8 7 6 5 6 7 8 8 10 11 7 6 7 7 9 8 6 7 9 13 16 16 17 18 13 11 15 15 14 15 15 22 16 14 13 10 11 9 8 10 11 11 11 7 1 7 5 3 4 5 5 7 6 6 8 9 11 12 12 11 7 2 5 3 5 6 7 7 6 8 10 11 12 8 9 14 13 9 11 13 14 13 11 17 31
16 15 13 10 8 6 5 5 4 6 9 11 8 4 4 6 8 9 5 5 4 5 9 12 13 11 15 15 12 13 12 12 11 13 21 15 15 12 8 8 7 8 10 9 7 6 3 1 1 2 3 5 7 7 8 8 6 6 4 6 11 12 12 9 4 4 4 5 6 8 7 6 6 9 12 13 12 12 11 9 10 14 15 14 13 12 11 20
15 15 14 11 9 7 7 6 5 7 9 6 3 4 6 7 9 8 3 4 3 6 8 11 10 8 12 15 14 11 5 6 11 17 16 11 13 12 9 8 7 7 8 6 2 3 5 4 1 3 4 6 8 7 8 10 8 4 1 6 10 9 11 11 8 6 6 6 5 8 8 7 6 8 8 10 11 12 10 10 11 13 16 16 14 13 12 14
14 14 15 12 9 8 8 9 10 11 9 8 7 7 7 7 8 5 2 3 1 7 8 8 6 6 13 14 15 16 5 7 11 13 12 10 12 12 11 11 11 8 9 8 3 1 3 5 5 6 7 6 7 8 10 11 9 5 3 7 10 9 11 11 8 8 7 7 6 7 9 7 5 8 8 8 9 9 10 10 10 11 13 15 14 15 16 16
15 14 14 13 9 8 8 9 9 10 9 7 10 8 7 9 7 2 3 3 2 5 6 8 7 7 13 12 15 20 10 7 7 7 12 13 13 14 11 10 13 12 6 7 5 3 4 6 5 5 7 7 9 12 12 10 8 5 5 6 8 9 10 9 8 7 6 7 8 8 9 6 6 7 8 8 9 8 8 8 9 9 9 5 4 5 5 4
16 14 13 13 9 7 7 7 7 7 6 7 10 9 8 8 5 3 4 2 3 5 6 8 9 12 14 10 12 17 13 9 7 8 12 12 14 16 14 12 12 11 5 5 8 10 7 5 4 6 8 8 10 12 9 5 5 4 3 6 8 9 9 8 7 6 6 7 9 12 12 8 7 6 6 6 5 7 7 8 7 7 4 2 2 2 3 5
16 15 13 12 8 6 7 7 6 8 5 7 10 9 6 5 4 4 5 1 2 6 9 7 9 13 14 12 10 12 13 12 9 10 9 9 11 12 11 11 9 6 6 5 8 12 9 7 6 8 11 10 9 9 6 4 6 5 4 6 7 6 7 6 5 5 6 7 7 11 13 11 8 5 6 4 6 7 5 7 7 8 7 5 4 1 1 2
16 16 13 11 9 8 9 8 6 7 9 11 10 8 5 5 5 5 6 2 1 5 8 8 11 11 14 15 11 12 12 12 11 11 9 8 8 8 8 7 5 4 7 6 6 7 8 7 8 10 11 10 9 6 6 7 7 6 6 6 6 5 4 5 6 5 6 7 6 6 8 9 7 6 6 1 8 8 4 4 9 10 9 10 7 4 3 3
15 16 15 12 12 12 11 10 8 10 11 9 8 6 5 5 6 7 7 4 3 5 6 8 10 10 13 14 12 11 10 10 11 11 10 10 8 7 10 11 10 8 5 4 5 5 5 8 10 8 10 10 8 6 6 5 6 6 6 6 6 5 5 6 6 6 6 6 6 5 5 5 5 6 7 4 7 9 7 8 11 10 10 10 7 5 6 5
15 16 16 15 14 14 13 11 10 9 7 7 6 6 6 7 7 8 8 7 5 4 6 8 9 10 12 12 10 11 9 9 10 10 10 10 8 6 9 12 12 8 4 4 5 5 6 6 8 9 6 9 8 8 8 6 5 7 6 6 6 4 5 6 5 5 5 4 6 6 3 3 3 2 3 5 7 9 8 9 10 9 9 9 7 5 5 6
15 15 16 17 16 15 13 12 11 8 6 7 7 6 7 7 7 8 8 8 7 6 7 9 9 10 11 11 10 11 11 8 9 11 10 9 8 7 8 9 10 7 5 6 3 4 9 6 6 8 3 6 6 9 7 8 6 3 4 6 6 4 5 5 5 6 5 4 5 5 4 3 1 2 1 6 9 9 8 9 10 10 10 10 7 5 6 8
14 14 16 16 15 14 12 12 11 8 7 8 7 6 8 7 7 8 6 7 7 6 7 9 9 9 8 8 8 11 11 7 7 9 8 9 11 10 9 7 7 9 7 5 2 2 7 4 5 9 5 5 9 8 3 4 4 1 3 5 4 5 5 5 6 6 5 6 5 4 5 5 3 3 5 7 8 9 9 10 11 12 10 9 7 6 7 9
12 13 14 15 14 12 12 12 11 9 8 8 7 7 7 8 10 10 8 7 7 5 7 7 6 7 8 6 7 9 9 7 8 8 6 9 10 9 11 8 5 7 5 4 3 1 3 4 3 5 6 9 10 5 4 6 5 4 5 3 2 5 6 5 5 5 5 6 5 4 7 8 6 5 7 9 9 9 9 9 11 12 11 9 7 8 9 10
13 13 16 19 16 12 12 12 11 12 10 8 8 9 9 10 12 14 12 8 5 6 8 7 5 6 8 6 7 9 7 6 8 9 7 8 5 4 7 7 7 7 5 4 3 1 2 5 6 5 8 9 8 5 6 8 9 9 8 6 4 4 5 4 4 5 5 5 5 7 9 8 6 3 7 11 10 9 10 11 11 12 12 10 10 10 10 12
13 12 16 17 13 12 12 11 12 12 10 8 8 8 9 11 15 18 15 7 6 8 8 8 7 6 7 8 7 8 10 9 8 8 8 7 4 2 4 2 6 7 5 5 4 3 3 4 5 7 11 9 4 4 4 6 9 12 9 8 6 5 5 5 4 4 5 6 5 7 8 5 3 2 4 9 9 9 9 8 8 10 12 12 12 11 10 12
11 11 12 9 11 14 11 10 12 11 8 8 8 8 10 11 15 19 14 5 4 9 8 8 10 7 8 10 9 8 10 10 9 9 8 5 4 2 5 3 4 5 3 4 6 4 4 3 3 7 10 8 4 3 5 6 6 7 7 7 6 5 5 6 5 5 6 6 5 6 6 2 1 2 2 6 8 9 7 6 6 8 11 12 13 13 12 13
11 10 7 8 13 13 11 9 10 9 7 8 9 11 12 10 11 14 10 4 6 11 11 10 10 8 7 9 9 8 8 8 9 8 7 7 5 5 7 7 7 6 4 3 5 3 2 3 5 6 7 7 6 6 9 8 7 6 5 5 6 5 4 5 7 6 6 6 5 6 6 1 1 1 1 3 5 5 7 8 7 8 11 13 14 14 14 16
9 8 6 12 13 12 12 8 8 9 8 8 11 13 11 6 8 12 10 8 8 10 12 12 10 9 8 7 8 9 8 8 9 8 7 8 3 2 5 7 5 3 1 3 3 2 2 2 5 7 7 8 10 11 13 11 7 7 8 7 7 6 3 4 7 5 5 6 5 7 5 1 1 1 2 1 1 1 6 8 7 9 13 15 15 15 14 16
10 8 3 9 11 11 10 7 8 8 8 10 14 17 15 9 8 11 12 12 9 7 9 9 7 8 8 8 8 9 8 7 9 9 9 6 5 9 8 7 5 4 1 5 4 4 2 2 5 7 7 9 11 13 15 13 8 7 8 7 8 9 7 7 7 5 5 7 6 7 5 1 3 4 3 0 3 4 8 11 9 10 17 16 13 14 14 15
13 12 7 7 9 10 10 7 7 7 8 13 15 15 15 13 10 10 12 12 9 8 8 7 6 7 8 8 8 9 7 6 8 9 11 7 7 11 9 8 3 3 3 2 3 3 1 2 4 6 6 7 8 8 9 9 7 6 6 5 7 11 11 10 8 6 6 8 9 8 6 2 1 2 1 2 4 3 7 11 9 11 17 15 12 13 14 15
14 12 11 11 12 11 11 9 9 8 8 11 12 11 13 12 11 12 11 10 9 8 7 6 8 8 7 8 9 8 8 8 7 7 11 7 6 8 6 6 2 1 7 10 7 2 3 3 4 6 6 6 6 4 3 3 5 5 4 5 8 10 11 9 7 6 6 8 9 8 7 2 3 2 2 5 5 4 5 10 11 15 16 13 13 16 15 15
9 6 7 9 12 12 13 14 14 11 7 8 8 7 10 10 10 11 9 10 11 10 7 6 8 8 7 8 9 8 9 11 9 8 8 8 5 6 6 6 4 7 12 11 6 2 3 4 6 8 8 8 9 9 10 8 8 8 8 10 11 9 10 9 6 6 6 7 7 8 8 6 1 2 2 5 7 8 3 3 5 13 17 11 11 15 13 12
7 5 4 3 5 7 9 12 13 10 8 7 5 6 9 11 11 8 5 7 11 10 7 8 9 7 7 8 8 8 9 11 11 10 10 11 7 5 9 6 4 9 10 3 1 2 3 5 8 11 12 13 14 15 15 13 13 13 12 13 14 11 10 9 7 8 8 7 8 8 8 9 8 7 4 4 5 7 5 6 8 4 14 12 11 13 13 13
5 6 7 8 4 6 4 6 8 7 7 8 6 7 9 9 10 8 6 5 10 8 5 6 9 9 9 9 7 6 9 10 10 10 10 11 7 4 9 6 5 10 6 4 6 4 4 6 9 11 14 15 16 16 15 14 14 14 14 15 15 14 13 11 10 11 10 8 10 10 9 10 10 11 11 6 4 3 6 6 7 7 8 12 15 15 14 14
11 10 11 13 9 6 5 9 10 9 7 4 3 6 8 8 9 9 5 3 6 8 7 6 8 9 10 12 10 6 5 6 6 7 7 7 6 2 4 5 6 9 6 5 6 6 4 6 8 10 14 15 15 15 15 15 14 14 16 17 16 15 15 14 14 14 13 12 14 14 11 10 9 9 12 12 7 5 8 7 8 9 6 9 13 14 13 13
15 12 13 16 12 7 8 8 7 7 5 1 1 5 7 7 8 8 6 4 4 6 8 9 9 10 12 13 10 3 5 6 5 6 7 6 4 4 5 4 3 5 6 5 4 4 4 4 6 7 10 12 13 14 15 16 16 16 17 17 16 15 15 14 14 12 11 12 13 12 10 7 8 9 10 13 14 12 12 11 12 14 13 13 13 13 14 17
16 12 11 13 9 6 7 6 5 6 4 3 3 4 4 6 6 4 3 4 4 4 5 8 10 10 12 11 6 8 10 8 7 6 6 6 4 3 4 4 5 6 6 6 5 4 4 3 5 6 7 8 10 13 15 16 17 17 17 16 16 15 13 12 13 11 10 11 10 9 8 6 6 9 10 11 14 14 12 12 15 17 16 14 14 17 18 16
20 15 13 12 8 6 6 4 4 5 3 5 7 5 4 5 6 5 3 3 6 6 3 7 10 8 7 8 11 11 10 9 8 8 8 7 7 6 7 8 8 7 6 5 5 3 4 5 5 6 7 8 11 13 13 14 14 12 10 9 11 13 13 13 12 10 9 9 7 6 6 6 9 9 8 9 11 13 15 16 18 19 14 10 10 14 16 14
Wind_Direction
333 332 328 329 329 325 323 320 318 320 319 323 327 328 329 326 329 330 330 325 305 291 276 270 265 269 270 266 270 266 265 262 253 246 248 241 227 240 244 242 245 240 225 210 188 202 214 217 225 225 228 231 232 240 242 234 232 237 235 242 254 250 254 254 252 281 36 272 59 69 59 323 296 298 288 242 252 261 270 261 93 86 88 99 118 137 152 142
344 343 341 339 334 330 328 325 326 325 325 328 329 334 331 326 332 335 341 335 311 301 280 279 257 249 260 261 269 272 270 270 265 254 245 235 234 237 235 239 242 231 210 194 196 212 213 213 220 219 224 232 229 227 237 228 217 232 243 235 245 251 258 260 266 351 27 319 354 18 15 301 288 299 302 274 262 251 252 205 109 98 97 105 118 129 138 141
354 350 349 344 339 339 336 338 339 336 334 329 332 338 333 332 337 336 342 337 318 296 262 273 258 259 263 262 273 281 282 287 279 266 251 238 238 236 233 237 232 219 207 195 203 216 217 220 217 217 225 233 234 225 226 218 205 222 239 246 243 245 259 272 299 350 318 312 327 315 327 307 278 282 291 269 263 245 235 208 133 117 114 111 119 131 139 147
357 355 353 350 350 353 354 358 357 354 348 335 329 331 335 338 338 339 328 323 305 244 226 254 259 261 260 273 279 296 305 297 281 256 235 238 244 241 234 230 215 207 200 193 212 227 227 233 227 222 229 235 236 231 226 214 206 217 225 244 252 258 276 295 334 332 293 306 310 306 314 290 278 290 278 267 261 241 226 222 181 132 125 123 127 138 147 151
355 356 355 355 356 360 5 8 9 7 2 352 335 322 330 338 341 347 321 302 280 238 229 242 246 252 258 285 277 304 323 307 220 185 235 254 261 254 236 220 203 194 186 190 223 241 230 234 239 231 229 241 239 230 227 221 221 229 234 245 262 280 295 313 330 325 317 318 300 286 274 285 303 278 252 251 255 255 4 271 177 140 132 134 138 146 148 152
350 353 355 358 358 2 10 13 14 12 10 6 350 327 319 331 341 339 314 299 274 235 236 236 239 248 252 270 262 272 290 319 67 219 267 279 272 264 230 208 191 180 177 195 231 238 230 230 235 230 225 238 245 237 224 223 229 237 249 250 260 274 276 294 320 42 50 284 269 259 269 299 292 263 233 229 246 70 39 36 102 124 131 137 146 150 151 160
339 344 348 355 357 1 7 10 12 11 11 7 360 349 325 323 333 328 314 298 267 224 227 234 237 233 233 254 279 277 256 279 303 251 275 279 267 259 214 193 180 175 178 207 234 226 220 222 223 226 226 231 244 246 230 227 232 232 251 256 256 264 262 270 288 313 268 260 259 261 277 277 264 258 183 211 227 96 70 72 94 109 126 139 148 153 159 168
322 329 335 340 346 353 355 358 4 7 8 4 3 1 346 327 323 329 324 298 267 234 228 235 227 220 253 272 316 285 254 252 257 269 283 270 257 228 190 177 173 174 180 215 231 220 215 221 225 224 226 231 237 242 237 235 233 224 245 265 268 269 268 268 271 274 258 252 251 255 262 254 253 257 197 198 174 123 106 104 107 116 132 143 149 159 167 169
306 311 319 324 332 337 341 346 353 360 4 3 1 358 356 344 329 334 326 302 270 243 225 230 221 225 278 318 328 291 255 216 262 279 276 237 220 184 171 164 168 174 191 225 227 220 217 220 225 225 234 248 253 253 240 232 227 230 241 251 258 252 247 258 255 247 243 244 236 240 250 242 239 243 219 153 143 161 138 130 141 139 143 148 153 166 171 169
301 300 303 311 319 322 329 336 343 351 357 1 360 356 356 348 339 336 325 305 267 240 227 229 222 251 300 330 307 291 90 133 284 288 206 177 156 155 156 164 171 185 213 227 222 222 223 227 233 236 252 262 271 274 246 223 223 253 257 248 253 259 255 253 250 235 229 236 229 239 246 223 208 229 221 142 165 201 170 145 152 157 158 153 157 172 174 173
296 295 296 300 304 310 317 324 332 343 349 356 360 359 359 358 355 345 344 334 266 218 218 222 231 277 296 294 274 278 32 140 193 153 167 152 146 145 151 178 188 204 223 221 222 227 227 243 260 250 255 265 264 260 243 240 245 258 272 264 260 266 260 255 252 236 236 232 217 244 248 183 194 219 189 184 196 207 188 149 160 176 160 151 165 174 174 177
293 289 291 294 296 300 303 311 323 334 344 351 358 4 5 7 8 2 10 23 18 186 219 227 248 286 315 284 259 259 321 205 184 172 171 158 160 164 172 199 202 210 221 213 222 232 234 262 275 243 244 298 265 259 236 231 246 259 257 265 260 251 243 242 237 223 238 226 198 239 251 179 214 213 159 179 199 202 192 164 178 183 153 155 171 167 174 186
297 288 285 286 289 292 293 299 311 325 337 344 353 2 3 5 7 8 14 20 131 196 222 225 265 300 313 284 254 222 192 192 186 178 179 179 183 195 211 214 208 221 240 237 228 221 230 260 267 251 263 274 260 327 344 220 238 254 240 250 254 252 233 220 220 215 231 215 183 224 251 197 209 182 142 167 197 201 184 164 189 191 155 158 164 161 176 189
302 295 286 281 280 284 286 288 298 318 328 334 344 350 352 354 347 351 4 9 270 234 228 238 283 309 286 277 238 194 215 188 183 189 185 189 195 204 214 210 212 231 244 255 266 208 221 254 260 263 267 261 271 334 311 230 239 245 237 242 237 261 240 198 194 206 219 186 164 215 256 224 190 150 151 178 201 210 190 176 193 183 144 139 153 159 171 182
306 302 293 283 277 276 278 283 289 303 315 321 329 334 338 338 332 325 326 344 328 250 233 245 312 328 274 265 230 217 224 185 185 191 183 191 198 197 196 199 210 223 221 235 276 230 228 250 248 253 249 246 265 286 254 223 229 231 233 233 217 252 239 167 169 196 207 164 164 225 256 240 204 148 153 197 213 218 207 194 186 163 143 129 154 159 167 180
310 308 300 289 282 275 272 275 279 288 301 308 314 323 324 320 320 304 289 307 314 261 234 251 350 331 298 271 193 193 204 193 193 185 185 195 191 181 180 188 197 201 206 220 251 240 229 241 242 252 260 249 234 241 249 233 221 214 231 239 227 243 201 143 175 191 201 189 179 211 247 249 196 149 149 187 218 221 219 211 174 150 160 177 174 157 153 167
314 312 306 296 288 281 275 273 276 282 286 292 301 307 310 306 304 296 278 271 287 270 227 207 356 298 265 260 201 197 199 196 185 179 188 202 201 183 170 188 198 193 201 213 226 232 226 235 241 246 255 251 239 238 239 236 222 199 217 232 241 245 195 152 178 179 204 221 193 194 238 252 125 132 162 179 220 226 223 231 186 147 161 181 168 127 139 158
319 316 312 304 294 289 284 279 279 280 275 280 293 297 302 301 295 289 261 248 276 319 244 213 195 280 251 234 230 208 196 189 178 184 191 202 219 205 184 199 196 188 208 215 215 224 221 223 234 240 233 228 238 240 234 246 279 312 254 222 239 246 216 199 181 167 196 220 215 198 227 233 136 150 190 181 236 249 227 238 224 153 156 165 148 126 154 170
324 318 317 310 302 300 295 291 285 275 270 273 290 299 300 292 280 274 248 231 210 177 224 195 192 238 314 196 212 201 184 180 176 190 194 195 215 214 203 209 209 208 217 211 201 211 216 218 230 237 230 227 225 223 253 321 343 335 301 236 237 255 229 242 180 148 186 201 214 219 223 227 187 178 186 173 212 240 238 236 238 178 152 154 164 166 173 176
331 323 324 317 313 316 307 305 287 267 276 284 301 302 296 292 265 236 203 219 232 236 262 217 195 222 264 158 179 165 157 176 186 196 197 194 203 212 212 217 227 223 226 234 205 195 220 234 237 236 232 261 260 246 342 335 332 324 310 273 231 243 221 235 177 144 188 221 211 232 236 228 223 214 186 179 196 203 241 242 227 228 174 165 174 168 166 168
339 327 327 325 322 327 319 306 278 276 295 293 301 287 289 345 353 336 250 240 249 246 254 255 213 225 256 153 156 159 168 186 197 204 197 192 202 210 205 211 228 220 221 244 223 156 219 250 252 244 210 54 336 351 356 319 315 313 310 313 273 250 221 220 168 144 155 240 240 255 254 230 220 241 222 185 199 188 245 261 236 239 222 198 188 163 163 168
349 331 326 327 323 328 291 262 276 290 304 294 294 281 293 356 358 327 321 277 267 244 236 247 235 233 248 221 182 188 197 193 197 206 194 189 206 211 192 194 225 226 212 232 232 175 214 239 250 241 125 91 339 349 324 305 305 294 287 288 285 275 253 93 73 134 151 170 250 258 257 240 207 231 254 206 214 205 225 259 254 242 236 236 235 171 165 171
357 340 327 320 314 313 255 269 287 288 303 300 293 286 298 336 337 323 315 282 276 246 224 227 234 235 231 225 214 209 218 207 196 199 188 191 210 218 216 209 226 236 223 214 213 239 239 224 238 223 91 12 302 313 296 298 282 270 275 268 262 261 254 174 108 199 219 159 248 270 271 277 242 222 272 246 218 197 211 242 248 246 236 233 248 181 160 164
359 347 332 315 306 299 272 282 291 294 303 300 296 285 293 320 327 330 316 276 274 252 224 217 222 227 222 218 208 213 226 221 209 191 178 196 215 213 228 239 242 249 244 224 202 232 261 263 109 109 94 277 287 287 266 274 265 249 245 253 262 259 262 269 135 152 280 228 242 278 281 283 262 213 240 246 217 187 217 233 236 244 245 238 248 195 161 165
360 352 340 325 309 294 287 298 308 322 309 289 301 297 294 318 320 329 324 276 261 240 221 211 214 224 217 200 194 212 221 233 241 194 170 194 219 208 218 234 244 249 244 243 226 224 256 3 105 128 169 210 242 256 236 234 257 251 232 236 258 273 284 293 116 131 244 248 218 244 261 252 236 212 220 245 216 189 225 229 221 236 245 244 235 216 183 169
356 353 344 333 320 301 293 308 320 326 296 275 289 308 310 316 311 322 318 269 255 201 189 189 193 206 196 179 187 215 223 237 242 168 163 199 223 225 239 222 228 253 260 269 250 223 213 188 217 256 247 240 241 250 245 236 248 263 266 259 256 266 282 278 238 191 227 251 210 200 237 255 239 225 220 229 208 190 218 227 222 229 232 241 236 224 210 171
346 349 343 334 325 305 283 285 269 276 298 307 309 317 328 311 305 321 294 266 258 179 161 164 170 181 189 180 184 208 225 212 189 154 158 203 215 228 254 232 224 237 251 282 288 249 237 181 144 288 262 249 246 245 239 232 238 253 337 291 265 251 262 260 244 239 242 262 238 194 228 259 259 261 255 238 207 181 201 227 231 227 215 216 224 224 224 203
332 340 341 334 321 310 291 282 271 264 287 340 333 308 320 306 302 318 265 278 220 172 161 162 162 180 193 178 186 211 192 144 181 168 171 206 208 215 237 245 264 259 224 229 224 283 261 182 173 233 247 244 248 250 238 225 227 241 249 266 268 258 255 255 245 240 243 260 253 210 223 246 249 259 266 246 215 192 204 218 222 234 223 203 204 215 214 213
320 325 336 332 314 315 306 288 290 274 264 315 324 309 308 298 298 303 249 266 202 172 149 161 165 187 197 175 191 222 215 167 202 184 176 199 210 223 244 258 277 286 245 209 224 250 247 237 234 229 234 241 241 241 240 230 224 246 284 281 277 272 263 261 256 250 246 250 255 241 228 235 246 246 244 226 207 202 214 213 201 221 249 228 192 222 231 250
312 314 325 328 315 316 310 295 323 323 280 294 306 301 301 288 277 253 232 222 221 198 146 152 175 189 202 189 194 219 225 210 199 164 177 197 207 225 256 269 271 282 266 209 244 254 227 214 279 272 247 249 250 250 253 243 229 227 262 268 264 261 256 255 256 258 260 247 246 252 243 242 256 247 246 243 189 177 216 227 189 171 216 256 31 347 300 302
306 305 310 316 306 290 283 286 347 3 314 283 288 291 291 265 245 250 234 242 274 197 158 170 196 188 196 210 204 198 216 221 182 166 195 203 200 212 235 249 252 267 262 234 238 253 235 184 197 240 249 262 269 272 281 261 252 255 247 257 260 247 245 253 252 245 253 252 245 251 250 246 248 248 258 250 150 155 224 228 171 150 164 144 92 40 240 303
302 299 298 300 288 267 258 270 318 325 281 277 285 283 275 252 234 236 238 291 313 190 180 208 211 189 191 212 214 190 208 225 192 188 209 202 197 202 214 225 209 219 248 238 217 236 253 236 213 204 212 239 256 258 252 232 235 253 249 250 259 249 242 249 249 239 240 253 262 273 271 255 240 249 266 224 136 161 206 171 152 159 155 132 120 124 108 80
298 294 290 284 275 265 257 262 282 285 280 290 288 266 255 253 243 241 241 238 196 190 223 233 214 195 193 209 217 197 207 228 207 202 208 210 209 195 214 225 202 205 239 255 249 226 238 261 251 219 185 199 233 246 239 218 201 226 240 237 244 245 247 247 244 246 246 259 268 270 285 276 247 242 241 202 148 168 168 144 149 152 136 135 149 151 137 123
291 293 289 281 272 265 259 258 266 276 288 291 271 246 238 243 253 263 260 245 220 218 254 247 215 205 208 216 215 192 208 232 216 213 206 208 221 195 214 231 215 215 230 224 246 236 237 253 235 226 176 163 210 243 257 272 232 216 236 250 250 239 244 253 250 255 261 277 273 254 246 255 253 259 206 160 139 150 158 154 151 142 138 157 176 162 133 107
284 291 289 279 267 262 258 251 255 267 276 266 254 238 234 239 249 254 257 254 239 226 252 256 232 222 221 223 217 201 214 223 200 219 226 211 225 214 208 231 226 223 233 225 215 211 242 253 200 210 158 126 222 243 253 286 282 213 220 248 255 237 237 259 271 277 282 287 270 243 229 242 222 38 142 149 140 155 174 165 155 158 165 167 164 146 117 95
280 284 289 281 265 259 255 243 241 247 252 251 247 239 237 243 249 248 266 291 276 241 240 247 238 239 234 223 228 214 208 211 197 217 236 220 230 231 206 207 217 214 227 252 266 216 249 261 170 185 170 177 244 260 236 254 285 300 239 244 262 256 247 262 271 271 265 260 259 232 233 242 205 197 201 177 175 188 180 162 163 168 157 142 134 129 116 98
277 269 276 276 264 250 239 230 224 225 237 247 248 250 249 249 255 259 273 297 307 293 261 251 230 239 242 222 238 227 190 189 213 218 235 226 228 231 206 178 182 219 250 295 298 302 290 287 208 190 206 210 222 266 290 259 269 282 262 264 301 256 242 248 265 263 250 253 258 242 241 241 235 216 185 189 210 205 179 171 173 160 143 136 132 120 111 104
285 266 264 267 259 231 212 211 211 219 234 246 247 252 260 262 264 269 275 285 300 279 260 256 222 223 248 235 229 235 213 204 223 223 231 225 211 233 216 165 165 221 281 317 288 316 295 278 277 264 261 237 194 196 261 259 250 253 271 297 298 264 250 243 254 260 256 259 259 256 254 247 253 245 174 188 210 201 185 190 182 162 159 157 138 127 122 115
292 271 267 266 241 200 194 202 210 223 234 242 245 246 251 257 258 262 269 286 302 278 263 265 248 216 244 253 232 228 229 229 234 232 229 212 181 273 282 144 164 212 263 279 268 282 271 275 279 265 269 269 219 192 243 255 234 227 243 270 273 278 279 257 251 262 265 268 269 268 268 256 272 296 166 177 199 201 194 201 196 177 173 159 137 136 132 121
291 273 269 247 193 181 189 203 214 223 231 238 244 249 252 255 255 258 261 257 277 276 265 267 264 237 227 242 241 236 233 227 230 241 243 210 160 215 250 230 198 192 204 268 277 285 279 277 272 272 279 276 252 225 252 275 269 238 226 236 246 257 264 259 254 251 256 265 271 274 278 285 308 312 140 170 198 206 199 206 211 184 166 151 139 142 136 124
286 272 253 189 173 180 187 199 218 227 233 237 241 248 257 270 273 273 276 258 260 275 275 272 279 279 259 243 241 239 237 232 231 241 251 228 201 212 212 201 212 206 175 233 262 269 279 274 265 269 274 266 252 245 254 267 282 288 278 257 257 261 265 270 262 254 264 275 280 279 281 309 237 234 117 171 194 196 197 200 206 184 157 142 136 139 137 130
275 260 212 181 182 185 189 207 227 225 233 240 242 245 247 269 284 275 266 240 233 256 267 266 269 279 279 261 251 248 244 239 236 237 246 244 224 161 172 161 174 198 193 262 273 63 78 277 275 267 263 271 274 273 278 280 271 274 286 281 276 278 269 261 263 267 282 282 284 282 280 346 353 346 58 32 6 172 186 189 206 183 146 134 137 139 138 134
262 256 206 182 190 191 199 233 237 225 238 246 247 251 249 249 262 267 262 251 240 238 250 257 259 260 261 254 248 251 250 246 249 249 247 242 98 97 120 130 140 145 153 276 304 45 72 241 264 271 275 281 277 269 272 276 260 245 259 265 270 273 266 264 274 285 283 272 272 275 264 270 335 346 49 29 279 240 188 189 213 177 138 134 145 143 140 139
285 282 263 199 189 201 217 235 238 233 242 243 245 253 257 255 251 256 264 259 250 245 246 260 274 269 269 266 257 253 250 243 248 254 255 244 113 108 116 110 145 203 122 46 10 32 326 246 240 261 278 276 266 250 245 256 260 246 250 270 283 282 276 269 271 278 279 274 275 277 271 261 12 342 325 256 262 235 171 173 181 147 138 152 166 155 148 145
301 290 262 214 186 203 230 242 249 251 252 256 257 254 257 259 247 248 269 278 270 267 270 274 278 280 284 279 268 258 254 254 247 247 257 247 137 127 136 120 135 314 65 63 52 28 279 281 270 264 269 268 265 265 274 323 318 296 292 290 285 292 298 295 278 263 264 273 274 271 274 287 114 147 304 324 303 276 183 181 176 150 153 174 172 159 153 146
292 290 266 222 192 206 235 247 253 260 270 283 287 270 259 260 248 243 263 282 272 265 275 273 267 275 282 277 278 272 260 260 258 250 253 245 188 153 157 154 133 78 63 55 42 348 283 282 277 270 270 274 280 291 310 328 314 294 291 280 269 276 295 299 285 266 273 285 278 270 278 295 295 171 56 20 323 297 292 276 234 163 160 174 165 157 157 152
274 294 324 295 223 233 247 247 249 251 254 258 263 260 253 252 254 236 214 262 269 257 261 270 264 266 268 265 274 280 273 271 267 258 249 249 243 151 132 152 142 102 82 51 231 239 272 257 257 264 265 269 277 286 295 300 289 282 286 286 285 288 293 290 277 276 289 287 271 280 301 308 312 319 339 45 8 309 305 327 314 184 154 158 169 180 190 178
324 321 355 12 320 272 290 298 292 292 280 269 266 272 265 257 262 244 196 252 282 268 248 262 262 260 261 258 254 260 271 273 270 269 261 255 252 147 137 161 143 122 126 245 222 201 247 252 250 260 262 264 270 274 277 279 280 281 281 279 280 282 282 276 264 265 276 275 272 288 303 295 299 311 306 321 41 318 294 314 295 253 185 172 183 199 207 187
7 345 352 357 328 292 330 331 321 319 312 309 308 291 280 267 270 270 244 251 292 288 277 269 263 262 263 260 253 255 276 283 287 309 312 287 271 244 206 200 159 145 165 235 229 199 217 252 257 263 268 268 269 272 276 278 278 280 280 274 271 274 276 275 272 269 267 266 270 281 288 285 292 307 306 310 318 277 276 291 279 262 243 214 205 209 221 216
1 347 343 339 327 321 331 319 301 296 294 309 305 291 291 280 272 276 270 257 286 310 303 288 287 295 288 272 263 288 23 14 345 346 350 329 295 283 286 278 242 219 217 237 243 184 174 247 274 279 278 275 277 282 282 277 274 277 281 282 282 283 285 286 287 287 279 270 273 284 292 296 306 310 308 316 320 298 273 273 272 262 252 253 247 231 236 245
356 347 340 334 325 322 318 301 292 293 301 5 346 320 325 310 295 301 303 290 307 327 321 315 319 320 311 308 337 27 27 15 359 351 347 331 310 292 294 296 297 283 259 251 247 179 167 250 288 290 278 274 278 277 275 276 276 273 274 282 285 280 276 273 270 272 278 280 286 294 290 293 321 323 322 333 341 332 323 332 324 295 266 259 261 245 235 241
359 354 348 340 316 300 307 315 357 352 347 4 350 329 333 331 324 343 7 331 311 303 314 346 334 314 319 2 24 18 355 343 342 339 331 314 295 283 277 273 281 291 286 271 262 240 232 254 269 271 272 277 278 279 286 289 279 270 274 287 291 284 278 274 273 280 293 296 296 290 290 330 348 340 334 346 353 346 344 351 347 333 326 332 317 277 248 236